This is the latest recevied weather packets stored in our database for station/object N5CNB. If no packets are shown the sender has not sent any weather packets the latest 10 day(s).
| Time | Temp. | Humidity | Pressure | Rain* | Wind** | Luminosity | Snow |
|---|---|---|---|---|---|---|---|
| 1777624223 | 17.22° C | 91% | 1010 hPa | 16.51 mm | - | - | - |
| 1777623306 | 17.22° C | 91% | 1012.7 hPa | 7.11 mm | - | - | - |
| 1777622414 | 17.22° C | 91% | 1011.3 hPa | 4.32 mm | - | - | - |
| 1777621517 | 17.78° C | 91% | 1011.3 hPa | 2.03 mm | - | - | - |
| 1777620618 | 17.78° C | 90% | 1011.1 hPa | 1.52 mm | - | - | - |
| 1777619725 | 17.78° C | 90% | 1011.7 hPa | 1.52 mm | - | - | - |
| 1777618823 | 17.78° C | 90% | 1011.6 hPa | 1.02 mm | - | - | - |
| 1777617911 | 17.78° C | 89% | 1012.3 hPa | 0 mm | - | - | - |
| 1777617032 | 18.33° C | 89% | 1012 hPa | 0 mm | - | - | - |
| 1777616121 | 18.33° C | 89% | 1011.6 hPa | 0 mm | - | - | - |
| 1777615227 | 18.33° C | 89% | 1011.2 hPa | 0 mm | - | - | - |
| 1777614310 | 18.89° C | 89% | 1012.4 hPa | 0 mm | - | - | - |
| 1777613416 | 19.44° C | 88% | 1011.4 hPa | 0 mm | - | - | - |
| 1777612520 | 19.44° C | 87% | 1013.6 hPa | 0 mm | - | - | - |
| 1777611624 | 19.44° C | 87% | 1013.6 hPa | 0 mm | - | - | - |
| 1777610726 | 20° C | 87% | 1013.7 hPa | 0 mm | - | - | - |
| 1777609818 | 19.44° C | 87% | 1013.7 hPa | 0 mm | - | - | - |
| 1777608918 | 19.44° C | 87% | 1013.8 hPa | 0 mm | - | - | - |
| 1777608024 | 20° C | 86% | 1012.5 hPa | 0 mm | - | - | - |
| 1777607135 | 20° C | 86% | 1012.5 hPa | 0 mm | - | - | - |
| 1777606226 | 20° C | 86% | 1012.4 hPa | 0 mm | - | - | - |
| 1777605317 | 20° C | 86% | 1011.7 hPa | 0 mm | - | - | - |
| 1777604418 | 19.44° C | 86% | 1011.3 hPa | 0 mm | - | - | - |
| 1777603526 | 19.44° C | 86% | 1011.7 hPa | 0 mm | - | - | - |
| 1777602625 | 19.44° C | 86% | 1011.6 hPa | 0 mm | - | - | - |
* Rain latest hour (hover to see other rain measurements)
** Current wind speed in m/s (hover to see current wind gust speed)